Location: Unspecified
(0.0000°N, 0.0000°E)
Time: 18:30:35
(UTC+00:00)

THORAD DELTA 1 DEB - Pass Details

Date: 19 February 2026
Orbit: 1442 x 1568 km, 101.4° (Epoch: 22 February)

Event Time Altitude Azimuth Distance (km) Brightness Sun altitude
Exits shadow 19:13:51 13° 108° (ESE) 3,554 ? -14.7°
Drops below altitude 10° 19:17:05 10° 130° (SE) 3,752 ? -15.5°
Sets 19:22:18 0° 156° (SSE) 4,722 ? -16.8°
